Location: Unspecified
(0.0000°N, 0.0000°E)
Time: 12:24:20
(UTC+00:00)

Courier 1B Rocket - Pass Details

Date: 18 December 2018
Orbit: 920 x 1202 km, 28.2° (Epoch: 26 March)

Event Time Altitude Azimuth Distance (km) Brightness Sun altitude
Rises 18:23:08 0° 266° (W) 4,087 9.9 -6.1°
Reaches altitude 10° 18:26:52 10° 250° (WSW) 3,131 9.5 -6.9°
Maximum altitude 18:32:22 21° 205° (SSW) 2,421 7.8 -8.2°
Drops below altitude 10° 18:37:49 10° 160° (SSE) 3,086 7.7 -9.4°
Sets 18:41:29 0° 144° (SE) 4,012 8.1 -10.3°
